[TLELIST] Archives

 

[list_settings.list_name] Current TLEs

November 1st 2011 PST

HST 1 20580U 90037B 11301.19053558 +.00003160 +00000-0 +22469-3 0 08609 2 20580 028.4701 227.4765 0003307 103.5954 256.4971 15.01701618979663 ISS (ZARYA) 1 25544U 98067A 11302.89537947 -.00001521 +00000-0 -12123-4 0 03379 2 25544 051.6410 202.6756 0022234 357.4073 093.7398 15.59244431741941 CXO 1 25867U 99040B 11303.83333333 -.00000034 +00000-0 +00000-0 0 06611 2 25867 070.4526 022.1081 8708551 277.2968 356.2497 00.37807499008284 ____________________________________________________________________ These 2-Line ...Continue Reading

[list_settings.list_name] Current TLEs

October 31st 2011 PST

HST 1 20580U 90037B 11301.19053558 +.00003160 +00000-0 +22469-3 0 08609 2 20580 028.4701 227.4765 0003307 103.5954 256.4971 15.01701618979663 ISS (ZARYA) 1 25544U 98067A 11277.47720390 .00016290 00000-0 20051-3 0 1799 2 25544 051.6409 330.5577 0016364 287.5750 217.0942 15.60246636737978 CXO 1 25867U 99040B 11301.20833333 -.00000059 +00000-0 +00000-0 0 06601 2 25867 070.4306 022.3162 8706003 277.2557 359.0111 00.37811240008278 ____________________________________________________________________ These 2-Line ...Continue Reading

[list_settings.list_name] Current TLEs

October 30th 2011 PST

HST 1 20580U 90037B 11300.19362378 +.00002851 +00000-0 +20155-3 0 08595 2 20580 028.4701 233.9938 0003291 100.0745 259.9927 15.01695829979518 ISS (ZARYA) 1 25544U 98067A 11300.90778693 +.00027582 +00000-0 +34649-3 0 03250 2 25544 051.6430 212.6614 0021716 352.8746 093.9444 15.59204992741635 CXO 1 25867U 99040B 11301.20833333 -.00000059 +00000-0 +00000-0 0 06601 2 25867 070.4306 022.3162 8706003 277.2557 359.0111 00.37811240008278 ____________________________________________________________________ These 2-Line ...Continue Reading

[list_settings.list_name] Current TLEs

October 29th 2011 PST

HST 1 20580U 90037B 11296.20596250 +.00003035 +00000-0 +21550-3 0 08572 2 20580 028.4706 260.0600 0003211 045.9963 314.0958 15.01667302978916 ISS (ZARYA) 1 25544U 98067A 11300.76416444 .00045603 00000-0 56230-3 0 3240 2 25544 051.6399 213.3840 0021869 353.4471 006.6750 15.59215888145678 CXO 1 25867U 99040B 11298.54166667 +.00000183 +00000-0 +00000-0 0 06586 2 25867 070.4067 022.5248 8700108 277.2322 356.0405 00.37807225008269 ____________________________________________________________________ These 2-Line ...Continue Reading

[list_settings.list_name] Current TLEs

October 28th 2011 PST

HST 1 20580U 90037B 11296.20596250 +.00003035 +00000-0 +21550-3 0 08572 2 20580 028.4706 260.0600 0003211 045.9963 314.0958 15.01667302978916 ISS (ZARYA) 1 25544U 98067A 11298.86055899 +.00055046 +00000-0 +65844-3 0 03119 2 25544 051.6416 222.9487 0018418 355.8254 109.6014 15.60234691741317 CXO 1 25867U 99040B 11298.54166667 +.00000183 +00000-0 +00000-0 0 06586 2 25867 070.4067 022.5248 8700108 277.2322 356.0405 00.37807225008269 ____________________________________________________________________ These 2-Line ...Continue Reading

[list_settings.list_name] Current TLEs

October 27th 2011 PST

HST 1 20580U 90037B 11296.20596250 +.00003035 +00000-0 +21550-3 0 08572 2 20580 028.4706 260.0600 0003211 045.9963 314.0958 15.01667302978916 ISS (ZARYA) 1 25544U 98067A 11297.89591008 +.00031331 +00000-0 +38032-3 0 03062 2 25544 051.6404 227.7996 0017958 352.2552 091.4670 15.60125693741162 CXO 1 25867U 99040B 11298.54166667 +.00000183 +00000-0 +00000-0 0 06586 2 25867 070.4067 022.5248 8700108 277.2322 356.0405 00.37807225008269 ____________________________________________________________________ These 2-Line ...Continue Reading

[list_settings.list_name] Current TLEs

October 26th 2011 PST

HST 1 20580U 90037B 11296.20596250 +.00003035 +00000-0 +21550-3 0 08572 2 20580 028.4706 260.0600 0003211 045.9963 314.0958 15.01667302978916 ISS (ZARYA) 1 25544U 98067A 11298.23030212 .00030120 00000-0 36562-3 0 3089 2 25544 051.6405 226.1167 0018087 353.5018 169.5798 15.60144326741219 CXO 1 25867U 99040B 11295.91666667 +.00000407 +00000-0 +00000-0 0 06577 2 25867 070.3799 022.6912 8696657 277.2458 358.6232 00.37806367008253 ____________________________________________________________________ These 2-Line ...Continue Reading

[list_settings.list_name] Current TLEs

October 25th 2011 PST

HST 1 20580U 90037B 11295.20903249 +.00002945 +00000-0 +20876-3 0 08569 2 20580 028.4707 266.5755 0003115 035.8360 324.2488 15.01660920978764 ISS (ZARYA) 1 25544U 98067A 11295.91525632 +.00030182 +00000-0 +36827-3 0 02908 2 25544 051.6399 237.7641 0018322 344.6223 127.8819 15.60002321740855 CXO 1 25867U 99040B 11295.91666667 +.00000407 +00000-0 +00000-0 0 06577 2 25867 070.3799 022.6912 8696657 277.2458 358.6232 00.37806367008253 ____________________________________________________________________ These 2-Line ...Continue Reading

[list_settings.list_name] Current TLEs

October 24th 2011 PST

HST 1 20580U 90037B 11294.27856023 +.00002868 +00000-0 +20303-3 0 08550 2 20580 028.4706 272.6563 0003041 025.2637 334.8124 15.01655190978628 ISS (ZARYA) 1 25544U 98067A 11294.88762719 +.00021919 +00000-0 +27010-3 0 02847 2 25544 051.6418 242.9304 0018455 340.8351 116.7704 15.59939921740693 CXO 1 25867U 99040B 11295.91666667 +.00000407 +00000-0 +00000-0 0 06577 2 25867 070.3799 022.6912 8696657 277.2458 358.6232 00.37806367008253 ____________________________________________________________________ These 2-Line ...Continue Reading

[list_settings.list_name] Current TLEs

October 23rd 2011 PST

HST 1 20580U 90037B 11292.35114966 +.00002871 +00000-0 +20330-3 0 08543 2 20580 028.4708 285.2475 0003015 005.0192 355.0835 15.01644613978335 ISS (ZARYA) 1 25544U 98067A 11293.91896002 +.00007859 +00000-0 +10140-3 0 02789 2 25544 051.6405 247.8021 0018646 336.9966 077.2398 15.59875268740546 CXO 1 25867U 99040B 11293.25000000 +.00000374 +00000-0 +00000-0 0 06567 2 25867 070.3447 022.9281 8696211 277.2280 355.5279 00.37808126008245 ____________________________________________________________________ These 2-Line ...Continue Reading
  • This mailing list is a public mailing list - anyone may join or leave, at any time.
  • This mailing list is announce-only.

International Space Station (ISS) / Hubble Space Telescope (HST) / Chandra X-Ray Observatory Orbital Data via EMAIL

Privacy Policy:

Private list